Chapel Hill, NC

4:41 PM EST on November 17, 2017 (GMT -0500)
Williams

Weather History for KIGX - November, 2013

Change the Weather History Date:

Saturday, November 16, 2013

  Actual Average Record
Temperature  
Mean Temperature 56 °F -  
Max Temperature 64 °F 62 °F 84 °F (1993)
Min Temperature 48 °F 35 °F 19 °F (1969)
Degree Days  
Heating Degree Days 9    
Growing Degree Days 6 (Base 50)    
Moisture  
Dew Point 52 °F    
Average Humidity 89    
Maximum Humidity 100    
Minimum Humidity 72    
Precipitation  
Precipitation 0.01 in - - ()
Sea Level Pressure  
Sea Level Pressure 30.25 in    
Wind  
Wind Speed 2 mph (North)    
Max Wind Speed 7 mph    
Max Gust Speed -    
Visibility 6 miles    
Events Fog    
Averages and records for this station are not official NWS values.
T = Trace of Precipitation, MM = Missing Value Source: NWS Daily Summary

Daily Weather History Graph

Daily Weather History Graph

Search for Another Location

Airport or City:

Trip Planner

Search our weather history database for the weather conditions in past years. The results will help you decide how hot, cold, wet, or windy it might be!

Date:

Astronomy

Nov. 16, 2013 Rise Set
Actual Time 6:53 AM EST 5:07 PM EST
Civil Twilight 6:26 AM EST 5:35 PM EST
Nautical Twilight 5:55 AM EST 6:06 PM EST
Astronomical Twilight 5:25 AM EST 6:36 PM EST
Moon 4:40 PM EST (11/16) 5:50 AM EST (11/16)
Length of Visible Light 11h 08m
Length of Day
10h 14m
Waxing Gibbous, 99% of the Moon is Illuminated
Nov 16
Waxing Gibbous
Nov 17
Full
Nov 25
Last Quarter
Dec 2
New
Dec 9
First Quarter

Hourly Weather History & Observations

Time (EST) Temp. Dew Point Humidity Pressure Visibility Wind Dir Wind Speed Gust Speed Precip Events Conditions
12:56 AM 48.9 °F 46.9 °F 93% 30.22 in 10.0 mi Calm Calm - N/A   Mostly Cloudy
1:56 AM 50.0 °F 46.9 °F 89% 30.22 in 10.0 mi NW 3.5 mph - N/A   Overcast
2:56 AM 51.1 °F 48.0 °F 89% 30.23 in 10.0 mi NW 3.5 mph - N/A   Overcast
3:14 AM 51.1 °F 48.9 °F 92% 30.23 in 10.0 mi WNW 4.6 mph - N/A   Overcast
3:56 AM 52.0 °F 48.0 °F 86% 30.24 in 9.0 mi NW 3.5 mph - N/A   Overcast
4:56 AM 52.0 °F 48.0 °F 86% 30.24 in 10.0 mi Calm Calm - 0.00 in   Overcast
5:56 AM 52.0 °F 48.0 °F 86% 30.25 in 10.0 mi Calm Calm - N/A   Overcast
6:56 AM 51.1 °F 48.9 °F 92% 30.26 in 8.0 mi NE 4.6 mph - 0.01 in   Overcast
7:19 AM 51.1 °F 48.9 °F 92% 30.26 in 6.0 mi Calm Calm - N/A   Overcast
7:56 AM 52.0 °F 50.0 °F 93% 30.26 in 6.0 mi ENE 4.6 mph - N/A   Overcast
8:56 AM 53.1 °F 50.0 °F 89% 30.27 in 7.0 mi Variable 3.5 mph - N/A   Overcast
9:14 AM 54.0 °F 51.1 °F 90% 30.28 in 7.0 mi ENE 4.6 mph - N/A   Overcast
9:56 AM 57.0 °F 53.1 °F 87% 30.28 in 5.0 mi Calm Calm - N/A   Overcast
10:30 AM 55.9 °F 53.1 °F 90% 30.28 in 6.0 mi Calm Calm - N/A   Overcast
10:56 AM 57.9 °F 54.0 °F 87% 30.27 in 7.0 mi Calm Calm - N/A   Overcast
11:51 AM 60.8 °F 53.6 °F 77% 30.27 in 10.0 mi Variable 3.5 mph - N/A   Overcast
11:56 AM 60.1 °F 54.0 °F 80% 30.27 in 10.0 mi Calm Calm - N/A   Overcast
12:56 PM 63.0 °F 55.0 °F 75% 30.25 in 10.0 mi NW 5.8 mph - N/A   Overcast
1:56 PM 64.0 °F 55.0 °F 73% 30.24 in 10.0 mi NNW 5.8 mph - N/A   Overcast
2:32 PM 63.0 °F 54.0 °F 72% 30.23 in 10.0 mi NNW 4.6 mph - N/A   Scattered Clouds
2:56 PM 64.0 °F 55.0 °F 73% 30.22 in 10.0 mi Variable 3.5 mph - N/A   Partly Cloudy
3:56 PM 64.0 °F 55.0 °F 73% 30.22 in 10.0 mi NNW 3.5 mph - N/A   Partly Cloudy
4:18 PM 62.1 °F 55.0 °F 78% 30.23 in 10.0 mi NNE 6.9 mph - N/A   Mostly Cloudy
4:28 PM 62.1 °F 55.0 °F 78% 30.24 in 10.0 mi North 3.5 mph - N/A   Overcast
4:56 PM 61.0 °F 54.0 °F 78% 30.23 in 10.0 mi NNE 4.6 mph - N/A   Overcast
5:56 PM 57.0 °F 53.1 °F 87% 30.23 in 10.0 mi NE 3.5 mph - N/A   Clear
6:33 PM 55.9 °F 53.1 °F 90% 30.24 in 9.0 mi NNE 3.5 mph - N/A   Mostly Cloudy
6:56 PM 55.0 °F 53.1 °F 93% 30.24 in 7.0 mi NE 4.6 mph - N/A   Mostly Cloudy
7:18 PM 54.0 °F 53.1 °F 97% 30.24 in 6.0 mi NNE 3.5 mph - N/A   Scattered Clouds
7:56 PM 54.0 °F 52.0 °F 93% 30.24 in 2.0 mi Calm Calm - N/A   Partly Cloudy
8:03 PM 54.0 °F 52.0 °F 93% 30.24 in 1.5 mi Calm Calm - N/A   Partly Cloudy
8:10 PM 54.0 °F 52.0 °F 93% 30.24 in 3.0 mi Calm Calm - N/A   Partly Cloudy
8:15 PM 54.0 °F 52.0 °F 93% 30.25 in 1.8 mi Calm Calm - N/A   Partly Cloudy
8:24 PM 52.0 °F 51.1 °F 97% 30.25 in 1.0 mi Calm Calm - N/A   Mist
8:27 PM 52.0 °F 51.1 °F 97% 30.25 in 2.0 mi Calm Calm - N/A   Partly Cloudy
8:52 PM 51.8 °F 51.8 °F 100% 30.25 in 1.2 mi Calm Calm - N/A   Clear
8:56 PM 52.0 °F 51.1 °F 97% 30.25 in 1.8 mi Calm Calm - N/A   Clear
9:00 PM 53.1 °F 52.0 °F 96% 30.25 in 3.0 mi Calm Calm - N/A   Clear
9:08 PM 52.0 °F 51.1 °F 97% 30.25 in 1.8 mi Calm Calm - N/A   Clear
9:21 PM 53.1 °F 52.0 °F 96% 30.26 in 3.0 mi Calm Calm - N/A   Clear
9:52 PM 53.6 °F 51.8 °F 94% 30.27 in 4.0 mi NW 3.5 mph - N/A   Scattered Clouds
9:56 PM 54.0 °F 53.1 °F 97% 30.26 in 4.0 mi NNW 3.5 mph - N/A   Mostly Cloudy
10:02 PM 54.0 °F 53.1 °F 97% 30.26 in 1.8 mi Variable 3.5 mph - N/A   Mostly Cloudy
10:10 PM 54.0 °F 53.1 °F 97% 30.25 in 0.5 mi Calm Calm - N/A Fog Fog
10:56 PM 54.0 °F 53.1 °F 97% 30.24 in 0.2 mi Calm Calm - N/A Fog Fog
11:56 PM 53.1 °F 53.1 °F 100% 30.23 in 0.2 mi Calm Calm - N/A Fog Fog